[[{"header":{"parameterUnit":"m.s-1","parameterCategory":2,"la1":30.2991,"la2":30.254,"lo1":-89.0895,"lo2":-89.0444,"dy":0.0017,"dx":0.0017,"nx":28,"ny":28,"refTime":"2025-03-06T09:00:00:Z","depth":"0","parameterNumber":2,"parameterNumberName":"U-component_of_CURRENTS"},"data":[0,0,0,0,0,0,0,0,0,0,0,0,0,0,0,0,0,0,0,0,0,0,0,0,0,0,0,0,0,0,0,0,0,0,0,0,0,0,0,0,0,0,0,0,0,0,0,0,0,0,0,0,0,0,0,0,0,0,-0.2778,-0.2778,0,-0.2773,-0.2773,-0.2772,-0.2753,-0.2753,-0.2752,-0.2752,-0.2721,-0.272,-0.2719,0,0,0,0,0,0,0,0,0,0,0,0,0,-0.2733,-0.2734,-0.2778,-0.2778,-0.2778,-0.2773,-0.2773,-0.2772,-0.2753,-0.2753,-0.2752,-0.2752,-0.2721,-0.272,-0.2719,0,0,0,0,0,0,0,0,0,0,0,0,0,-0.274,-0.2734,-0.2777,-0.277,-0.277,-0.2773,-0.2773,-0.2772,-0.2753,-0.2752,-0.2752,-0.2752,-0.2721,-0.272,-0.2719,-0.2717,0,0,-0.2716,-0.2715,0,0,0,0,0,0,0,0,-0.2739,-0.2741,-0.2771,-0.2771,-0.277,-0.2766,-0.2746,-0.2754,-0.2753,-0.2756,-0.2752,-0.2752,-0.2736,-0.2733,-0.2729,-0.2715,-0.2714,-0.2716,-0.2715,-0.2715,-0.2714,0,0,0,0,0,0,0,-0.2739,-0.2741,-0.2772,-0.2771,-0.2771,-0.2755,-0.2756,-0.2747,-0.2744,-0.2755,-0.2755,-0.276,-0.2735,-0.273,-0.2728,-0.2714,-0.2716,-0.2715,-0.2714,-0.2714,-0.2696,-0.2696,0,0,0,0,0,0,-0.2749,-0.2741,-0.2772,-0.2773,-0.2758,-0.2756,-0.2757,-0.2765,-0.2744,-0.2742,-0.276,-0.2759,-0.2732,-0.2729,-0.2726,-0.2734,-0.2715,-0.2714,-0.2713,-0.2696,-0.2696,-0.2696,0,0,0,0,0,0,-0.2748,-0.2752,-0.2773,-0.2759,-0.2761,-0.2758,-0.2767,-0.2765,-0.2763,-0.2749,-0.2745,-0.276,-0.2731,-0.2728,-0.2721,-0.2732,-0.2713,-0.2712,-0.2696,-0.2696,-0.2696,-0.2741,0,0,0,0,0,0,-0.2746,-0.2751,-0.2753,-0.276,-0.2762,-0.2784,-0.2767,-0.2765,-0.2768,-0.2766,-0.2748,-0.2745,-0.2731,-0.2723,-0.272,-0.273,-0.2711,-0.2696,-0.2696,-0.2696,-0.274,-0.2743,-0.2746,0,0,0,0,0,-0.2745,-0.2749,-0.2753,-0.2757,-0.2768,-0.2785,-0.2784,-0.2779,-0.2768,-0.2773,-0.2756,-0.2745,-0.2723,-0.2722,-0.2719,-0.2729,-0.2696,-0.2696,-0.2696,-0.2738,-0.2742,-0.2746,0,0,0,0,0,0,-0.2721,-0.2748,-0.2753,-0.2762,-0.2779,-0.2783,-0.2781,-0.2782,-0.2773,-0.2766,-0.2748,-0.2744,-0.2744,-0.2728,-0.2727,-0.2724,-0.2707,-0.2707,-0.274,-0.2744,-0.2747,-0.2736,-0.271,0,0,0,0,0,-0.2722,-0.2732,-0.2759,-0.2763,-0.2774,-0.2779,-0.2782,-0.2785,-0.2782,-0.2778,-0.2766,-0.275,-0.2742,-0.2736,-0.2727,-0.2724,-0.2694,-0.2727,-0.273,-0.2733,-0.2722,-0.2691,-0.2691,-0.2698,-0.2698,-0.2698,0,0,-0.2708,-0.2727,-0.2729,-0.2759,-0.2765,-0.2786,-0.2779,-0.2791,-0.28,-0.2776,-0.2774,-0.2764,-0.2745,-0.2744,-0.2742,-0.2732,-0.2717,-0.2734,-0.2737,-0.2723,-0.2692,-0.2691,-0.269,-0.2698,-0.2698,-0.2698,0,0,-0.2698,-0.2712,-0.2723,-0.2746,-0.2773,-0.2783,-0.2792,-0.2807,-0.2806,-0.2812,-0.2795,-0.2786,-0.2777,-0.2763,-0.2754,-0.2767,-0.2737,-0.277,-0.2776,-0.2747,-0.2746,-0.2745,-0.2711,-0.2707,-0.2769,-0.2769,-0.2769,0,-0.2681,-0.2704,-0.2727,-0.2753,-0.2766,-0.2786,-0.2804,-0.2814,-0.2821,-0.2817,-0.2816,-0.2792,-0.2782,-0.277,-0.2777,-0.2774,-0.2751,-0.2766,-0.2751,-0.2749,-0.2747,-0.2713,-0.2707,-0.2771,-0.2771,-0.2771,-0.277,0,-0.2688,-0.2708,-0.2717,-0.2758,-0.2778,-0.2794,-0.2825,-0.2836,-0.2839,-0.2842,-0.2835,-0.282,-0.2799,-0.2805,-0.2796,-0.278,-0.2767,-0.2763,-0.2743,-0.2749,-0.2713,-0.2706,-0.2774,-0.2774,-0.2773,-0.2772,0,0,-0.2633,-0.2708,-0.2708,-0.2729,-0.2781,-0.2794,-0.2822,-0.2843,-0.2846,-0.2853,-0.2844,-0.2838,-0.2824,-0.2812,-0.2802,-0.2781,-0.2756,-0.2769,-0.2766,-0.2737,-0.2687,-0.2594,-0.2577,-0.2753,-0.2752,-0.2751,-0.267,0,-0.2625,-0.2669,-0.271,-0.274,-0.2762,-0.28,-0.2822,-0.2844,-0.2856,-0.2855,-0.2842,-0.2832,-0.283,-0.282,-0.28,-0.2773,-0.2739,-0.2777,-0.2683,-0.2679,-0.2597,-0.2566,-0.246,-0.237,-0.2663,-0.2662,-0.2661,0,-0.2608,-0.2644,-0.2676,-0.2732,-0.2744,-0.2765,-0.2792,-0.2817,-0.2835,-0.2842,-0.2835,-0.2829,-0.2808,-0.28,-0.2742,-0.2769,-0.2723,-0.2696,-0.2692,-0.2579,-0.2572,-0.2409,-0.2346,-0.2329,-0.265,-0.2651,-0.2652,0,-0.2543,-0.261,-0.2631,-0.2651,-0.2724,-0.2734,-0.2763,-0.2798,-0.2811,-0.2825,-0.2828,-0.2811,-0.2794,-0.2749,-0.2703,-0.2721,-0.2627,-0.2643,-0.2508,-0.2501,-0.2375,-0.2358,-0.228,-0.2572,-0.2572,-0.2572,-0.2573,0,-0.2509,-0.2521,-0.26,-0.2611,-0.2623,-0.269,-0.27,-0.2732,-0.2769,-0.2769,-0.2806,-0.279,-0.278,-0.2736,-0.269,-0.257,-0.2611,-0.2486,-0.2464,-0.2387,-0.2373,-0.2323,-0.2362,-0.2569,-0.257,-0.2571,-0.2571,0,-0.2424,-0.2484,-0.2506,-0.2577,-0.2593,-0.2596,-0.2658,-0.2665,-0.2722,-0.2722,-0.2725,-0.2762,-0.2703,-0.2672,-0.2595,-0.2535,-0.2392,-0.2386,-0.2293,-0.226,-0.2108,-0.2154,-0.2051,-0.199,-0.2217,-0.2214,-0.2212,0,-0.2382,-0.2387,-0.2453,-0.2456,-0.2482,-0.251,-0.2524,-0.2611,-0.2628,-0.2688,-0.2673,-0.2653,-0.2586,-0.2456,-0.2356,-0.223,-0.226,-0.2074,-0.2074,-0.2058,-0.2094,-0.2145,-0.2107,-0.1934,-0.1929,-0.1926,-0.1923,0,-0.2282,-0.2307,-0.2323,-0.2341,-0.2356,-0.2381,-0.2416,-0.2434,-0.2526,-0.253,-0.2515,-0.2469,-0.2363,-0.2191,-0.206,-0.1983,-0.2026,-0.199,-0.1995,-0.1868,-0.1896,-0.184,-0.2045,-0.1889,-0.1893,-0.1895,-0.1897,-0.1898,-0.2181,-0.2167,-0.219,-0.219,-0.2215,-0.2225,-0.2204,-0.2257,-0.226,-0.224,-0.2297,-0.2179,-0.2083,-0.1869,-0.1793,-0.1653,-0.1744,-0.1608,-0.1666,-0.172,-0.1649,-0.1771,-0.158,-0.1581,-0.1582,-0.1584,-0.1585,0,-0.2039,-0.2037,-0.2035,-0.2039,-0.2012,-0.2078,-0.21,-0.205,-0.2001,-0.1998,-0.1939,-0.1812,-0.1648,-0.1587,-0.1451,-0.1366,-0.1356,-0.1356,-0.1418,-0.1393,-0.1497,-0.147,-0.1218,-0.1218,-0.1218,-0.1218,-0.1218,-0.1218,-0.1962,-0.1905,-0.1909,-0.1821,-0.1827,-0.1758,-0.1743,-0.1671,-0.1634,-0.1497,-0.1431,-0.14,-0.1399,-0.1475,-0.1351,-0.1276,-0.1275,-0.1231,-0.1278,-0.1383,-0.1412,-0.1441,-0.1422,-0.1165,-0.1165,-0.1107,-0.1107,-0.1107]},{"header":{"parameterUnit":"m.s-1","parameterCategory":2,"la1":30.2991,"la2":30.254,"lo1":-89.0895,"lo2":-89.0444,"dy":0.0017,"dx":0.0017,"nx":28,"ny":28,"refTime":"2025-03-06T09:00:00:Z","depth":"0","parameterNumber":3,"parameterNumberName":"V-component_of_CURRENTS"},"data":[0,0,0,0,0,0,0,0,0,0,0,0,0,0,0,0,0,0,0,0,0,0,0,0,0,0,0,0,0,0,0,0,0,0,0,0,0,0,0,0,0,0,0,0,0,0,0,0,0,0,0,0,0,0,0,0,0,0,-0.0245,-0.0244,0,-0.0177,-0.0176,-0.0175,-0.0132,-0.0132,-0.0132,-0.0132,-0.0031,-0.0028,-0.0026,0,0,0,0,0,0,0,0,0,0,0,0,0,-0.0293,-0.0293,-0.0245,-0.0244,-0.0244,-0.0177,-0.0176,-0.0175,-0.0132,-0.0132,-0.0132,-0.0131,-0.0032,-0.0029,-0.0026,0,0,0,0,0,0,0,0,0,0,0,0,0,-0.0254,-0.0293,-0.0245,-0.0214,-0.0211,-0.0177,-0.0176,-0.0175,-0.0132,-0.0132,-0.0132,-0.0131,-0.0033,-0.0029,-0.0025,-0.001,0,0,-0.0014,-0.0012,0,0,0,0,0,0,0,0,-0.0256,-0.0252,-0.022,-0.0216,-0.0212,-0.0163,-0.0156,-0.0118,-0.0132,-0.0162,-0.0132,-0.0131,-0.0072,-0.0065,-0.0054,-0.0005,-0.0,-0.0014,-0.0011,-0.001,-0.0009,0,0,0,0,0,0,0,-0.0259,-0.0254,-0.0218,-0.0219,-0.0214,-0.0188,-0.0182,-0.0148,-0.0119,-0.0159,-0.0156,-0.0149,-0.007,-0.0057,-0.0051,0.0001,-0.0014,-0.0011,-0.0008,-0.0007,0.0079,0.0079,0,0,0,0,0,0,-0.027,-0.0257,-0.022,-0.0216,-0.0234,-0.0188,-0.0181,-0.0179,-0.012,-0.0111,-0.0149,-0.0147,-0.0064,-0.0055,-0.0047,-0.0021,-0.001,-0.0006,-0.0004,0.0079,0.0079,0.0079,0,0,0,0,0,0,-0.0272,-0.0268,-0.0223,-0.0235,-0.0227,-0.0188,-0.0185,-0.0178,-0.0165,-0.0113,-0.0103,-0.0144,-0.0063,-0.0052,-0.0021,-0.0016,-0.0005,-0.0001,0.0078,0.0079,0.0079,0.003,0,0,0,0,0,0,-0.0273,-0.0269,-0.0274,-0.0236,-0.0227,-0.0209,-0.0185,-0.0177,-0.0161,-0.0158,-0.0105,-0.0095,-0.0062,-0.0027,-0.0018,-0.0011,0.0001,0.0078,0.0078,0.0079,0.0031,0.0028,0.0026,0,0,0,0,0,-0.0275,-0.0286,-0.0275,-0.027,-0.0235,-0.0209,-0.0202,-0.0172,-0.0161,-0.0159,-0.0125,-0.0097,-0.0019,-0.0024,-0.0013,-0.0005,0.0078,0.0078,0.0079,0.0033,0.0029,0.0026,0,0,0,0,0,0,-0.0312,-0.0281,-0.0269,-0.027,-0.0244,-0.0202,-0.0199,-0.0177,-0.0148,-0.0146,-0.0098,-0.0086,-0.0056,-0.0026,-0.0032,0.0019,0.0035,0.0037,-0.0004,-0.0007,-0.001,-0.0022,0.0005,0,0,0,0,0,-0.0323,-0.0322,-0.0286,-0.0288,-0.0277,-0.0239,-0.0226,-0.0205,-0.0173,-0.016,-0.0123,-0.0083,-0.0047,-0.0025,0.0009,0.0037,0.0077,0.005,0.0047,0.0044,0.0042,0.0096,0.0097,0.0079,0.0079,0.0079,0,0,-0.0338,-0.0321,-0.0321,-0.0295,-0.0274,-0.0266,-0.0231,-0.0215,-0.0207,-0.0153,-0.0134,-0.0094,-0.0043,-0.0013,0.0003,0.0013,0.0074,0.0044,0.0042,0.0041,0.0096,0.0098,0.01,0.0079,0.0079,0.0079,0,0,-0.037,-0.0353,-0.0364,-0.0345,-0.0317,-0.029,-0.0289,-0.0248,-0.0228,-0.0203,-0.0162,-0.012,-0.007,-0.0028,-0.0002,0.0001,0.0053,0.0011,-0.0008,0.0044,0.0046,0.0049,0.0113,0.0121,0.0014,0.0014,0.0014,0,-0.0391,-0.0399,-0.0362,-0.0366,-0.0358,-0.0306,-0.0314,-0.0284,-0.0239,-0.0221,-0.0205,-0.0119,-0.0075,-0.0028,-0.0026,-0.0005,0.0034,0.0,0.004,0.0043,0.0046,0.0112,0.0122,0.0011,0.0012,0.0012,0.0012,0,-0.0428,-0.0434,-0.0438,-0.0426,-0.041,-0.0409,-0.0363,-0.0343,-0.0311,-0.0273,-0.0223,-0.0159,-0.0108,-0.0082,-0.0052,-0.0007,0.0018,0.0026,0.0047,0.0045,0.0115,0.0126,0.0008,0.0009,0.001,0.001,0,0,-0.0478,-0.0469,-0.0471,-0.0479,-0.0444,-0.0436,-0.0418,-0.0383,-0.0369,-0.031,-0.0282,-0.0207,-0.0164,-0.0131,-0.0079,-0.0026,0.0038,0.0005,0.0009,0.0065,0.0163,0.0219,0.0237,0.005,0.0052,0.0053,0.0207,0,-0.052,-0.0554,-0.0527,-0.0549,-0.0562,-0.0509,-0.0497,-0.0455,-0.0404,-0.0362,-0.0277,-0.0231,-0.0184,-0.0157,-0.0097,-0.0,0.0062,-0.0004,0.0161,0.0166,0.0211,0.025,0.0278,0.0421,0.0218,0.022,0.0222,0,-0.0567,-0.0584,-0.0621,-0.0618,-0.0616,-0.0614,-0.0581,-0.056,-0.048,-0.0439,-0.0369,-0.03,-0.0208,-0.0174,-0.0004,-0.0051,0.005,0.0131,0.0139,0.0213,0.0242,0.0389,0.045,0.059,0.0239,0.0238,0.0237,0,-0.0632,-0.0647,-0.0682,-0.0682,-0.0667,-0.0668,-0.0651,-0.0587,-0.0564,-0.0483,-0.0452,-0.0338,-0.0265,-0.0144,0.0032,0.001,0.023,0.0219,0.0371,0.0376,0.0446,0.0455,0.0657,0.0341,0.0341,0.0341,0.034,0,-0.0693,-0.0718,-0.0717,-0.0739,-0.0772,-0.0731,-0.0737,-0.07,-0.0634,-0.0594,-0.0498,-0.0426,-0.0255,-0.0105,0.0029,0.0251,0.0234,0.0383,0.0423,0.0431,0.0437,0.0597,0.0639,0.0347,0.0345,0.0344,0.0343,0,-0.0759,-0.0758,-0.08,-0.0804,-0.0807,-0.0829,-0.0805,-0.0798,-0.0729,-0.0671,-0.0647,-0.0476,-0.0272,-0.0084,0.0152,0.0266,0.0555,0.0536,0.0544,0.0582,0.082,0.0855,0.1099,0.1195,0.071,0.0713,0.0715,0,-0.0797,-0.0827,-0.086,-0.0888,-0.0893,-0.0911,-0.0918,-0.0859,-0.0835,-0.0685,-0.0655,-0.0445,-0.0266,0.0101,0.0335,0.0595,0.0697,0.0768,0.0726,0.086,0.0929,0.0956,0.102,0.0809,0.0811,0.0813,0.0815,0,-0.0863,-0.0872,-0.0907,-0.0972,-0.0997,-0.1015,-0.101,-0.0996,-0.0895,-0.0799,-0.0616,-0.0455,-0.0102,0.0226,0.0555,0.0702,0.0872,0.0819,0.0959,0.1032,0.1074,0.1175,0.0686,0.0834,0.0832,0.0831,0.0829,0.0829,-0.0901,-0.0946,-0.0991,-0.1047,-0.1079,-0.1088,-0.1054,-0.0994,-0.0899,-0.0667,-0.0586,-0.0263,0.0125,0.0599,0.0767,0.1103,0.1061,0.1193,0.1232,0.1252,0.1331,0.0889,0.1073,0.1073,0.1072,0.1072,0.1072,0,-0.0943,-0.099,-0.1058,-0.111,-0.1145,-0.1142,-0.1083,-0.0963,-0.078,-0.0562,-0.0342,0.0121,0.0525,0.0883,0.1315,0.1502,0.1532,0.1593,0.1634,0.1683,0.1306,0.1296,0.1534,0.1534,0.1534,0.1533,0.1533,0.1533,-0.0963,-0.1037,-0.1075,-0.1144,-0.1171,-0.1106,-0.1036,-0.0798,-0.0577,-0.0149,0.0173,0.0388,0.0801,0.1429,0.1841,0.1879,0.2042,0.2023,0.2122,0.1843,0.1808,0.1774,0.1778,0.2113,0.2113,0.2491,0.2494,0.2497]}],[{"header":{"parameterUnit":"m.s-1","parameterCategory":2,"la1":30.2991,"la2":30.254,"lo1":-89.0895,"lo2":-89.0444,"dy":0.0017,"dx":0.0017,"nx":28,"ny":28,"refTime":"2025-03-06T09:00:00:Z","depth":"2","parameterNumber":2,"parameterNumberName":"U-component_of_CURRENTS"},"data":[0,0,0,0,0,0,0,0,0,0,0,0,0,0,0,0,0,0,0,0,0,0,0,0,0,0,0,0,0,0,0,0,0,0,0,0,0,0,0,0,0,0,0,0,0,0,0,0,0,0,0,0,0,0,0,0,0,0,-0.2485,-0.2485,0,-0.2497,-0.2497,-0.2497,-0.2492,-0.2492,-0.2492,-0.2491,-0.2488,-0.2488,-0.2488,0,0,0,0,0,0,0,0,0,0,0,0,0,-0.2432,-0.2433,-0.2485,-0.2486,-0.2486,-0.2497,-0.2497,-0.2497,-0.2492,-0.2492,-0.2492,-0.2491,-0.2488,-0.2488,-0.2488,0,0,0,0,0,0,0,0,0,0,0,0,0,-0.2448,-0.2434,-0.2485,-0.2487,-0.2487,-0.2497,-0.2497,-0.2497,-0.2492,-0.2492,-0.2491,-0.2491,-0.2488,-0.2488,-0.2488,-0.2489,0,0,-0.2488,-0.2488,0,0,0,0,0,0,0,0,-0.2448,-0.245,-0.2486,-0.2486,-0.2487,-0.2495,-0.2477,-0.2494,-0.2492,-0.2487,-0.2491,-0.2491,-0.2491,-0.249,-0.2489,-0.2489,-0.2489,-0.2488,-0.2488,-0.2488,-0.2488,0,0,0,0,0,0,0,-0.2447,-0.2449,-0.2487,-0.2486,-0.2487,-0.2478,-0.248,-0.248,-0.2487,-0.2488,-0.2488,-0.2493,-0.2491,-0.2489,-0.2489,-0.2489,-0.2488,-0.2488,-0.2488,-0.2488,-0.2495,-0.2495,0,0,0,0,0,0,-0.2452,-0.2449,-0.2487,-0.2488,-0.247,-0.2479,-0.2482,-0.249,-0.2487,-0.2488,-0.2493,-0.2493,-0.249,-0.2489,-0.2489,-0.2509,-0.2488,-0.2488,-0.2488,-0.2495,-0.2495,-0.2495,0,0,0,0,0,0,-0.2451,-0.2455,-0.2486,-0.247,-0.2474,-0.2481,-0.249,-0.2491,-0.2496,-0.2492,-0.2492,-0.25,-0.249,-0.2489,-0.2494,-0.2508,-0.2488,-0.2488,-0.2494,-0.2495,-0.2495,-0.2536,0,0,0,0,0,0,-0.2449,-0.2455,-0.2459,-0.2471,-0.2475,-0.2501,-0.2491,-0.2491,-0.2501,-0.25,-0.2497,-0.2497,-0.2489,-0.2494,-0.2494,-0.2507,-0.2488,-0.2494,-0.2495,-0.2495,-0.2535,-0.2538,-0.2541,0,0,0,0,0,-0.2447,-0.2453,-0.2459,-0.2464,-0.2482,-0.2502,-0.2504,-0.2506,-0.2501,-0.2509,-0.2503,-0.2497,-0.2496,-0.2494,-0.2494,-0.2508,-0.2494,-0.2494,-0.2495,-0.2533,-0.2537,-0.2541,0,0,0,0,0,0,-0.2427,-0.2454,-0.2461,-0.2473,-0.2492,-0.2503,-0.2506,-0.2511,-0.2512,-0.251,-0.2502,-0.2501,-0.2511,-0.2501,-0.2499,-0.2509,-0.2493,-0.2494,-0.2523,-0.2526,-0.2529,-0.2522,-0.2488,0,0,0,0,0,-0.2428,-0.2439,-0.2466,-0.2474,-0.2486,-0.2498,-0.2504,-0.2512,-0.2517,-0.2518,-0.2517,-0.2511,-0.2511,-0.2513,-0.251,-0.2518,-0.2492,-0.2524,-0.2528,-0.253,-0.2523,-0.25,-0.2501,-0.2497,-0.2497,-0.2497,0,0,-0.2418,-0.2436,-0.244,-0.2471,-0.2481,-0.2504,-0.2501,-0.2517,-0.2532,-0.2517,-0.2528,-0.2525,-0.2515,-0.2524,-0.2527,-0.2519,-0.2518,-0.2531,-0.2534,-0.2524,-0.2501,-0.2501,-0.2501,-0.2497,-0.2497,-0.2497,0,0,-0.2411,-0.2427,-0.2439,-0.2462,-0.2491,-0.2505,-0.2514,-0.2535,-0.2541,-0.2557,-0.2547,-0.2546,-0.2552,-0.2545,-0.2542,-0.2558,-0.2536,-0.2564,-0.2575,-0.2554,-0.2554,-0.2554,-0.2521,-0.2518,-0.2565,-0.2565,-0.2566,0,-0.2399,-0.2421,-0.2444,-0.2468,-0.2485,-0.2509,-0.2529,-0.2543,-0.2562,-0.2564,-0.2565,-0.2563,-0.2559,-0.2559,-0.2567,-0.2566,-0.2547,-0.2565,-0.2558,-0.2557,-0.2556,-0.2523,-0.2519,-0.2568,-0.2567,-0.2567,-0.2567,0,-0.2406,-0.2429,-0.2438,-0.2478,-0.2501,-0.2521,-0.2554,-0.2572,-0.2583,-0.2592,-0.2599,-0.2592,-0.2586,-0.2592,-0.2587,-0.2582,-0.2569,-0.2566,-0.255,-0.2559,-0.2523,-0.2518,-0.257,-0.257,-0.2569,-0.2569,0,0,-0.2358,-0.2429,-0.2431,-0.2454,-0.2509,-0.2525,-0.2558,-0.2587,-0.2599,-0.2615,-0.262,-0.2623,-0.2615,-0.261,-0.2604,-0.259,-0.2571,-0.258,-0.2578,-0.2549,-0.2517,-0.2431,-0.2417,-0.2573,-0.2572,-0.2572,-0.2494,0,-0.2353,-0.2397,-0.2436,-0.2473,-0.2498,-0.2539,-0.2567,-0.2596,-0.2616,-0.2629,-0.2625,-0.2628,-0.2625,-0.2622,-0.261,-0.2586,-0.2559,-0.2591,-0.251,-0.2507,-0.2431,-0.2409,-0.2247,-0.2158,-0.2489,-0.2488,-0.2487,0,-0.2338,-0.2374,-0.2412,-0.2474,-0.2488,-0.2514,-0.2555,-0.2585,-0.2616,-0.263,-0.2636,-0.2637,-0.2626,-0.2618,-0.257,-0.2594,-0.2552,-0.2528,-0.2524,-0.2423,-0.2411,-0.2201,-0.2135,-0.2478,-0.2479,-0.2479,-0.248,0,-0.2281,-0.235,-0.2378,-0.24,-0.2477,-0.2494,-0.2529,-0.2574,-0.2593,-0.2624,-0.2634,-0.263,-0.262,-0.2584,-0.254,-0.2555,-0.2475,-0.2487,-0.2363,-0.2357,-0.2189,-0.2168,-0.2429,-0.2429,-0.2429,-0.243,-0.243,0,-0.2253,-0.2271,-0.2353,-0.2368,-0.2392,-0.246,-0.2483,-0.2522,-0.2568,-0.2575,-0.262,-0.2612,-0.2612,-0.2574,-0.2532,-0.2423,-0.2462,-0.2347,-0.2325,-0.2198,-0.2181,-0.2438,-0.244,-0.2427,-0.2427,-0.2428,-0.2428,0,-0.2177,-0.2237,-0.2268,-0.2346,-0.2366,-0.2379,-0.245,-0.2464,-0.2527,-0.2537,-0.2545,-0.2588,-0.2537,-0.2514,-0.2448,-0.2393,-0.2312,-0.2259,-0.2106,-0.2067,-0.2212,-0.2217,-0.2112,-0.2108,-0.2105,-0.2102,-0.21,0,-0.214,-0.2151,-0.2227,-0.2236,-0.2267,-0.2306,-0.2328,-0.2418,-0.2438,-0.2503,-0.2492,-0.2482,-0.2423,-0.2311,-0.222,-0.2107,-0.2201,-0.1907,-0.1901,-0.2186,-0.2176,-0.2187,-0.2196,-0.1696,-0.169,-0.1686,-0.1682,0,-0.2054,-0.2083,-0.2105,-0.2135,-0.2159,-0.219,-0.2233,-0.2247,-0.2339,-0.2348,-0.2334,-0.2294,-0.2205,-0.2019,-0.1908,-0.1831,-0.1919,-0.1813,-0.213,-0.1809,-0.1789,-0.1782,-0.1805,-0.1643,-0.1647,-0.165,-0.1652,-0.1654,-0.1966,-0.1959,-0.1991,-0.2002,-0.2034,-0.2043,-0.2009,-0.2067,-0.2068,-0.2042,-0.211,-0.1982,-0.1954,-0.1675,-0.1572,-0.15,-0.1632,-0.1568,-0.1583,-0.1603,-0.1576,-0.1552,-0.1357,-0.1359,-0.1361,-0.1362,-0.1364,0,-0.1842,-0.1847,-0.1854,-0.1862,-0.1835,-0.1901,-0.1909,-0.1839,-0.1775,-0.1794,-0.1738,-0.1513,-0.1385,-0.1361,-0.1176,-0.1138,-0.1146,-0.1102,-0.1121,-0.116,-0.1194,-0.1149,-0.0815,-0.0813,-0.0812,-0.081,0,0,-0.1775,-0.1731,-0.1735,-0.1649,-0.1648,-0.1533,-0.1495,-0.1425,-0.1386,-0.1289,-0.1223,-0.1297,-0.1302,-0.1056,-0.1003,-0.0876,-0.1009,-0.083,-0.1269,-0.1329,-0.1361,-0.1458,-0.1431,0,0,0,0,0]},{"header":{"parameterUnit":"m.s-1","parameterCategory":2,"la1":30.2991,"la2":30.254,"lo1":-89.0895,"lo2":-89.0444,"dy":0.0017,"dx":0.0017,"nx":28,"ny":28,"refTime":"2025-03-06T09:00:00:Z","depth":"2","parameterNumber":3,"parameterNumberName":"V-component_of_CURRENTS"},"data":[0,0,0,0,0,0,0,0,0,0,0,0,0,0,0,0,0,0,0,0,0,0,0,0,0,0,0,0,0,0,0,0,0,0,0,0,0,0,0,0,0,0,0,0,0,0,0,0,0,0,0,0,0,0,0,0,0,0,-0.0363,-0.0362,0,-0.03,-0.03,-0.0299,-0.0259,-0.0259,-0.0259,-0.0259,-0.0164,-0.0162,-0.016,0,0,0,0,0,0,0,0,0,0,0,0,0,-0.0408,-0.0407,-0.0363,-0.0362,-0.0361,-0.03,-0.03,-0.0299,-0.0259,-0.0259,-0.0259,-0.0259,-0.0165,-0.0162,-0.0159,0,0,0,0,0,0,0,0,0,0,0,0,0,-0.0371,-0.0407,-0.0363,-0.0334,-0.0331,-0.0301,-0.03,-0.0299,-0.0259,-0.0259,-0.0259,-0.0258,-0.0166,-0.0162,-0.0159,-0.0145,0,0,-0.0148,-0.0147,0,0,0,0,0,0,0,0,-0.0373,-0.037,-0.0339,-0.0336,-0.0333,-0.0287,-0.0281,-0.0245,-0.026,-0.0287,-0.0259,-0.0258,-0.0202,-0.0196,-0.0186,-0.014,-0.0136,-0.0148,-0.0146,-0.0145,-0.0144,0,0,0,0,0,0,0,-0.0376,-0.0372,-0.0338,-0.0339,-0.0334,-0.0311,-0.0305,-0.0274,-0.0247,-0.0284,-0.0281,-0.0274,-0.02,-0.0189,-0.0183,-0.0135,-0.0148,-0.0145,-0.0143,-0.0142,-0.0068,-0.0068,0,0,0,0,0,0,-0.0386,-0.0375,-0.034,-0.0336,-0.0352,-0.031,-0.0304,-0.0302,-0.0248,-0.0239,-0.0275,-0.0273,-0.0195,-0.0187,-0.0179,-0.0155,-0.0145,-0.0141,-0.0139,-0.0068,-0.0068,-0.0069,0,0,0,0,0,0,-0.0387,-0.0384,-0.0343,-0.0354,-0.0347,-0.031,-0.0308,-0.0301,-0.0289,-0.0241,-0.0232,-0.0269,-0.0194,-0.0184,-0.0156,-0.0151,-0.014,-0.0137,-0.0068,-0.0068,-0.0068,-0.0109,0,0,0,0,0,0,-0.0389,-0.0385,-0.0389,-0.0355,-0.0346,-0.033,-0.0308,-0.03,-0.0285,-0.0282,-0.0233,-0.0224,-0.0193,-0.0161,-0.0153,-0.0146,-0.0134,-0.0068,-0.0068,-0.0068,-0.0107,-0.011,-0.0113,0,0,0,0,0,-0.0391,-0.04,-0.039,-0.0386,-0.0353,-0.0331,-0.0325,-0.0297,-0.0286,-0.0284,-0.0252,-0.0226,-0.0156,-0.0159,-0.0148,-0.0141,-0.0068,-0.0068,-0.0068,-0.0106,-0.011,-0.0113,0,0,0,0,0,0,-0.0424,-0.0396,-0.0384,-0.0385,-0.0362,-0.0324,-0.0321,-0.0301,-0.0275,-0.0272,-0.0227,-0.0216,-0.019,-0.0162,-0.0166,-0.0121,-0.0108,-0.0106,-0.014,-0.0143,-0.0146,-0.0153,-0.0131,0,0,0,0,0,-0.0434,-0.0433,-0.04,-0.0402,-0.0393,-0.0358,-0.0346,-0.0327,-0.0298,-0.0286,-0.0251,-0.0215,-0.0183,-0.0162,-0.0133,-0.0107,-0.0068,-0.0095,-0.0098,-0.0101,-0.01,-0.0043,-0.004,-0.0069,-0.0069,-0.0069,0,0,-0.0447,-0.0432,-0.0432,-0.0409,-0.0389,-0.0383,-0.035,-0.0336,-0.0328,-0.0279,-0.026,-0.0226,-0.0181,-0.0154,-0.0139,-0.0128,-0.0072,-0.0101,-0.0104,-0.0101,-0.0043,-0.004,-0.0037,-0.007,-0.007,-0.007,0,0,-0.0476,-0.046,-0.047,-0.0454,-0.0429,-0.0405,-0.0403,-0.0367,-0.0347,-0.0325,-0.0288,-0.025,-0.0206,-0.0167,-0.0143,-0.0143,-0.0094,-0.0136,-0.0147,-0.0092,-0.0089,-0.0086,-0.0033,-0.0025,-0.0132,-0.0132,-0.0132,0,-0.0495,-0.0501,-0.0469,-0.0473,-0.0465,-0.0419,-0.0425,-0.0398,-0.0357,-0.0338,-0.0326,-0.0248,-0.021,-0.0164,-0.0164,-0.0147,-0.0111,-0.0139,-0.0095,-0.0091,-0.0087,-0.0034,-0.0024,-0.0134,-0.0134,-0.0133,-0.0133,0,-0.0529,-0.0533,-0.0537,-0.0527,-0.0512,-0.051,-0.0469,-0.045,-0.042,-0.0385,-0.0338,-0.0281,-0.0233,-0.0212,-0.0187,-0.0139,-0.0122,-0.011,-0.0087,-0.0087,-0.0031,-0.002,-0.0137,-0.0136,-0.0135,-0.0135,0,0,-0.0575,-0.0565,-0.0567,-0.0572,-0.054,-0.0533,-0.0515,-0.048,-0.0464,-0.0411,-0.0381,-0.0315,-0.0276,-0.0246,-0.02,-0.0146,-0.0085,-0.012,-0.0116,-0.0069,0.0037,0.0064,0.0079,-0.0066,-0.0065,-0.0064,0.0065,0,-0.0612,-0.0641,-0.0616,-0.0634,-0.0644,-0.0595,-0.0581,-0.0541,-0.0494,-0.0452,-0.0373,-0.0329,-0.0291,-0.0265,-0.0205,-0.0119,-0.0059,-0.0121,0.0031,0.0035,0.0059,0.0092,0.0069,0.0184,0.0076,0.0078,0.0079,0,-0.0655,-0.0668,-0.0699,-0.0691,-0.0689,-0.0687,-0.0652,-0.0631,-0.0553,-0.0514,-0.0446,-0.0383,-0.0295,-0.0265,-0.0108,-0.0152,-0.0062,0.001,0.0017,0.0064,0.0083,0.0166,0.0208,0.0098,0.0096,0.0095,0.0094,0,-0.0713,-0.0723,-0.0751,-0.075,-0.0733,-0.0731,-0.0714,-0.0653,-0.0631,-0.0549,-0.052,-0.0408,-0.0345,-0.0227,-0.0078,-0.0092,0.0101,0.01,0.0214,0.0217,0.024,0.0242,0.0218,0.0218,0.0218,0.0218,0.0217,0,-0.0767,-0.0787,-0.0784,-0.0802,-0.0828,-0.0789,-0.0791,-0.0754,-0.0691,-0.0657,-0.0559,-0.0499,-0.0331,-0.0201,-0.0078,0.0107,0.0105,0.0225,0.0258,0.0225,0.0224,0.0179,0.0172,0.0222,0.0221,0.022,0.022,0,-0.0827,-0.0825,-0.0858,-0.0858,-0.086,-0.0878,-0.0854,-0.0847,-0.0781,-0.0732,-0.0708,-0.0553,-0.0377,-0.0203,0.0012,0.0113,0.0278,0.0346,0.0296,0.032,0.0357,0.0346,0.0481,0.0484,0.0485,0.0487,0.0488,0,-0.0861,-0.0887,-0.0913,-0.0938,-0.0942,-0.0956,-0.0963,-0.0905,-0.0884,-0.0757,-0.0734,-0.0551,-0.0405,-0.0085,0.013,0.0362,0.0354,0.0467,0.0438,0.0368,0.0387,0.0373,0.0361,0.0455,0.0456,0.0457,0.0457,0,-0.0922,-0.0929,-0.0958,-0.1018,-0.1041,-0.1058,-0.1054,-0.1047,-0.0958,-0.0885,-0.0744,-0.0613,-0.0299,-0.0031,0.0262,0.0387,0.0422,0.0489,0.0453,0.0382,0.0352,0.0366,0.0354,0.0464,0.0463,0.0463,0.0463,0.0462,-0.0959,-0.0998,-0.1038,-0.1089,-0.1121,-0.114,-0.1151,-0.1108,-0.1048,-0.0907,-0.0761,-0.0521,-0.0284,0.0155,0.0348,0.0529,0.0518,0.0558,0.0553,0.0547,0.0511,0.0485,0.0616,0.0616,0.0616,0.0616,0.0616,0,-0.1001,-0.1042,-0.1103,-0.1158,-0.1203,-0.1198,-0.1196,-0.1177,-0.1097,-0.0905,-0.0729,-0.0405,-0.0089,0.016,0.0455,0.0614,0.0589,0.0633,0.0567,0.056,0.0553,0.0515,0.0622,0.0623,0.0623,0.0624,0,0,-0.1023,-0.109,-0.1122,-0.1208,-0.1246,-0.1282,-0.1277,-0.1219,-0.1095,-0.0887,-0.0661,-0.0391,-0.0075,0.0134,0.0333,0.0486,0.0471,0.0496,0.0473,0.0361,0.0353,0.0495,0.0427,0,0,0,0,0]}],[{"header":{"parameterUnit":"m.s-1","parameterCategory":2,"la1":30.2991,"la2":30.254,"lo1":-89.0895,"lo2":-89.0444,"dy":0.0017,"dx":0.0017,"nx":28,"ny":28,"refTime":"2025-03-06T09:00:00:Z","depth":"4","parameterNumber":2,"parameterNumberName":"U-component_of_CURRENTS"},"data":[0,0,0,0,0,0,0,0,0,0,0,0,0,0,0,0,0,0,0,0,0,0,0,0,0,0,0,0,0,0,0,0,0,0,0,0,0,0,0,0,0,0,0,0,0,0,0,0,0,0,0,0,0,0,0,0,0,0,-0.1733,-0.1734,0,-0.1798,-0.1799,-0.1799,-0.1856,-0.1856,-0.1857,-0.1858,-0.1947,-0.1949,-0.195,0,0,0,0,0,0,0,0,0,0,0,0,0,-0.1644,-0.1645,-0.1733,-0.1734,-0.1735,-0.1798,-0.1799,-0.1799,-0.1855,-0.1856,-0.1857,-0.1858,-0.1946,-0.1948,-0.195,0,0,0,0,0,0,0,0,0,0,0,0,0,-0.1692,-0.1646,-0.1733,-0.1772,-0.1776,-0.1798,-0.1799,-0.18,-0.1855,-0.1856,-0.1857,-0.1859,-0.1946,-0.1948,-0.1951,-0.1943,0,0,-0.1958,-0.1959,0,0,0,0,0,0,0,0,-0.1689,-0.1695,-0.1765,-0.1769,-0.1774,-0.1821,-0.18,-0.1849,-0.1855,-0.1824,-0.1858,-0.1859,-0.1907,-0.1913,-0.192,-0.1947,-0.1951,-0.1958,-0.196,-0.1961,-0.1962,0,0,0,0,0,0,0,-0.1686,-0.1692,-0.1758,-0.1766,-0.1771,-0.1781,-0.1789,-0.1809,-0.1857,-0.1826,-0.1831,-0.184,-0.191,-0.1918,-0.1923,-0.1952,-0.1958,-0.1961,-0.1962,-0.1963,-0.2049,-0.205,0,0,0,0,0,0,-0.168,-0.1689,-0.1756,-0.176,-0.1735,-0.1782,-0.1791,-0.1804,-0.1857,-0.1866,-0.1839,-0.1842,-0.1913,-0.192,-0.1926,-0.2,-0.1961,-0.1963,-0.1965,-0.2049,-0.205,-0.205,0,0,0,0,0,0,-0.1678,-0.1686,-0.1753,-0.1727,-0.1736,-0.1782,-0.1796,-0.1804,-0.1846,-0.1866,-0.1876,-0.1877,-0.1914,-0.1923,-0.1971,-0.2001,-0.1964,-0.1967,-0.2048,-0.2049,-0.205,-0.2097,0,0,0,0,0,0,-0.1675,-0.1684,-0.1706,-0.1726,-0.1738,-0.1788,-0.1796,-0.1805,-0.1849,-0.1855,-0.1901,-0.1909,-0.1915,-0.1967,-0.1973,-0.2004,-0.1969,-0.2047,-0.2048,-0.205,-0.2094,-0.2099,-0.2104,0,0,0,0,0,-0.1672,-0.169,-0.1706,-0.1715,-0.1761,-0.1789,-0.1796,-0.1831,-0.185,-0.1872,-0.1903,-0.1909,-0.1981,-0.197,-0.1977,-0.2009,-0.2046,-0.2048,-0.2049,-0.2092,-0.2098,-0.2103,0,0,0,0,0,0,-0.1664,-0.1698,-0.1716,-0.1746,-0.1777,-0.18,-0.1826,-0.1848,-0.1889,-0.1905,-0.1923,-0.1932,-0.1983,-0.1987,-0.1974,-0.2036,-0.2013,-0.2016,-0.2043,-0.2049,-0.2054,-0.2043,-0.1971,0,0,0,0,0,-0.1671,-0.1696,-0.1727,-0.1754,-0.1772,-0.1805,-0.1827,-0.1852,-0.1883,-0.1905,-0.1937,-0.1966,-0.1989,-0.2014,-0.2033,-0.2071,-0.2049,-0.2093,-0.2098,-0.2102,-0.2098,-0.209,-0.2093,-0.2056,-0.2056,-0.2056,0,0,-0.1675,-0.1697,-0.1713,-0.1755,-0.1782,-0.1813,-0.1822,-0.1864,-0.1897,-0.1906,-0.197,-0.1988,-0.2002,-0.2043,-0.2066,-0.2057,-0.2101,-0.2105,-0.2108,-0.2101,-0.2092,-0.2095,-0.2098,-0.2058,-0.2057,-0.2057,0,0,-0.1682,-0.1718,-0.174,-0.1769,-0.1817,-0.1838,-0.1857,-0.1901,-0.1933,-0.1986,-0.1997,-0.2029,-0.208,-0.2088,-0.2098,-0.2139,-0.2124,-0.2156,-0.218,-0.2172,-0.2175,-0.2177,-0.2148,-0.2148,-0.2162,-0.2162,-0.2162,0,-0.1689,-0.1721,-0.1751,-0.1781,-0.1811,-0.1853,-0.1886,-0.1919,-0.1976,-0.2,-0.2016,-0.2077,-0.2094,-0.2126,-0.2143,-0.215,-0.2138,-0.2159,-0.2178,-0.218,-0.2181,-0.2151,-0.215,-0.2164,-0.2164,-0.2164,-0.2163,0,-0.1704,-0.1746,-0.1763,-0.1816,-0.1851,-0.1888,-0.1935,-0.1981,-0.2025,-0.2052,-0.2107,-0.2127,-0.2158,-0.2173,-0.2176,-0.22,-0.2185,-0.2183,-0.2162,-0.2188,-0.2154,-0.2152,-0.2168,-0.2167,-0.2166,-0.2165,0,0,-0.1672,-0.1758,-0.1767,-0.1804,-0.1876,-0.1903,-0.1965,-0.2019,-0.2058,-0.2113,-0.2153,-0.2193,-0.2205,-0.2215,-0.2223,-0.2224,-0.2224,-0.2217,-0.2215,-0.2185,-0.2198,-0.2054,-0.2037,-0.2233,-0.2233,-0.2233,-0.2168,0,-0.1678,-0.1738,-0.1782,-0.1849,-0.1884,-0.1946,-0.1996,-0.2053,-0.2104,-0.2153,-0.2177,-0.2217,-0.2221,-0.2243,-0.2245,-0.2234,-0.2221,-0.224,-0.2179,-0.2176,-0.2044,-0.203,-0.2234,-0.2166,-0.2165,-0.2165,-0.2165,0,-0.1669,-0.1716,-0.1781,-0.1871,-0.1893,-0.1942,-0.2027,-0.2077,-0.2146,-0.2184,-0.2225,-0.2246,-0.2266,-0.2262,-0.2244,-0.2262,-0.2231,-0.2212,-0.2209,-0.2054,-0.2027,-0.2137,-0.216,-0.216,-0.216,-0.2161,-0.2161,0,-0.1615,-0.171,-0.1766,-0.1798,-0.1904,-0.1951,-0.2009,-0.2088,-0.2127,-0.2203,-0.2229,-0.2263,-0.2277,-0.2259,-0.2227,-0.2244,-0.2185,-0.2199,-0.2032,-0.2021,-0.2153,-0.2151,-0.2164,-0.2164,-0.2165,-0.2165,-0.2165,0,-0.1584,-0.1632,-0.1754,-0.1783,-0.1849,-0.1934,-0.2002,-0.2063,-0.214,-0.2164,-0.2239,-0.224,-0.228,-0.2255,-0.2224,-0.2104,-0.2178,-0.2016,-0.1989,-0.2173,-0.2175,-0.215,-0.2149,-0.2162,-0.2163,-0.2163,-0.2164,0,-0.1508,-0.1592,-0.1661,-0.1786,-0.1827,-0.1874,-0.199,-0.2025,-0.2115,-0.2146,-0.2167,-0.2225,-0.2185,-0.2186,-0.2145,-0.2073,-0.1992,-0.1929,-0.2106,-0.2094,-0.1836,-0.1839,-0.1735,-0.1729,-0.1724,-0.172,-0.1717,0,-0.1469,-0.1501,-0.1643,-0.1681,-0.1743,-0.183,-0.1876,-0.1994,-0.2021,-0.2102,-0.209,-0.2102,-0.2113,-0.1923,-0.1959,-0.1867,-0.1846,-0.1796,-0.1829,-0.1804,-0.179,-0.18,-0.1809,-0.1709,-0.1708,-0.1706,-0.1705,0,-0.1387,-0.1455,-0.1511,-0.1592,-0.1659,-0.1719,-0.1796,-0.1799,-0.1905,-0.2008,-0.1939,-0.1899,-0.1847,-0.1806,-0.1742,-0.1686,-0.183,-0.1745,-0.1756,-0.1786,-0.1772,-0.1764,-0.1779,-0.1688,-0.1691,-0.1692,-0.1693,0,-0.1321,-0.1339,-0.1421,-0.1474,-0.1554,-0.1569,-0.1633,-0.1647,-0.1685,-0.1779,-0.1746,-0.1755,-0.1813,-0.1708,-0.1651,-0.1582,-0.1565,-0.1518,-0.1541,-0.156,-0.1534,-0.1492,-0.1277,0,0,0,0,0,-0.1243,-0.1247,-0.129,-0.1339,-0.1411,-0.1447,-0.1553,-0.1618,-0.1721,-0.1618,-0.1675,-0.1611,-0.1526,-0.1543,-0.1431,-0.1582,-0.1581,-0.1448,-0.1543,-0.1594,-0.1614,-0.1601,0,0,0,0,0,0,-0.119,-0.1227,-0.1242,-0.1208,-0.1205,-0.1261,-0.1315,-0.1392,-0.1349,-0.1456,-0.1414,-0.1496,-0.1438,-0.1538,-0.1385,-0.1389,-0.1413,-0.147,-0.1466,-0.1583,-0.1601,-0.1617,-0.161,0,0,0,0,0]},{"header":{"parameterUnit":"m.s-1","parameterCategory":2,"la1":30.2991,"la2":30.254,"lo1":-89.0895,"lo2":-89.0444,"dy":0.0017,"dx":0.0017,"nx":28,"ny":28,"refTime":"2025-03-06T09:00:00:Z","depth":"4","parameterNumber":3,"parameterNumberName":"V-component_of_CURRENTS"},"data":[0,0,0,0,0,0,0,0,0,0,0,0,0,0,0,0,0,0,0,0,0,0,0,0,0,0,0,0,0,0,0,0,0,0,0,0,0,0,0,0,0,0,0,0,0,0,0,0,0,0,0,0,0,0,0,0,0,0,-0.0299,-0.0298,0,-0.0261,-0.0261,-0.026,-0.0239,-0.0239,-0.0239,-0.0239,-0.0172,-0.017,-0.0169,0,0,0,0,0,0,0,0,0,0,0,0,0,-0.0322,-0.0322,-0.0299,-0.0298,-0.0298,-0.0261,-0.0261,-0.026,-0.0239,-0.0239,-0.0239,-0.0239,-0.0173,-0.0171,-0.0169,0,0,0,0,0,0,0,0,0,0,0,0,0,-0.0301,-0.0322,-0.0299,-0.0283,-0.0281,-0.0261,-0.0261,-0.026,-0.0239,-0.0239,-0.0239,-0.0239,-0.0173,-0.0171,-0.0168,-0.0154,0,0,-0.016,-0.0159,0,0,0,0,0,0,0,0,-0.0302,-0.03,-0.0286,-0.0284,-0.0282,-0.0255,-0.0244,-0.0223,-0.0239,-0.0255,-0.0239,-0.0239,-0.0197,-0.0193,-0.0186,-0.0151,-0.0148,-0.016,-0.0159,-0.0157,-0.0157,0,0,0,0,0,0,0,-0.0304,-0.0302,-0.0284,-0.0285,-0.0283,-0.0267,-0.0264,-0.024,-0.0226,-0.0254,-0.0252,-0.0248,-0.0196,-0.0189,-0.0184,-0.0147,-0.016,-0.0158,-0.0156,-0.0155,-0.0105,-0.0105,0,0,0,0,0,0,-0.031,-0.0303,-0.0285,-0.0283,-0.0292,-0.0267,-0.0264,-0.0264,-0.0227,-0.0222,-0.0248,-0.0247,-0.0193,-0.0187,-0.0182,-0.0168,-0.0157,-0.0155,-0.0154,-0.0105,-0.0105,-0.0105,0,0,0,0,0,0,-0.0311,-0.0309,-0.0287,-0.0292,-0.0288,-0.0267,-0.0267,-0.0263,-0.0259,-0.0223,-0.0217,-0.0248,-0.0193,-0.0185,-0.0168,-0.0165,-0.0154,-0.0152,-0.0105,-0.0105,-0.0105,-0.0136,0,0,0,0,0,0,-0.0312,-0.031,-0.0316,-0.0293,-0.0288,-0.0282,-0.0267,-0.0262,-0.0256,-0.0255,-0.0221,-0.0215,-0.0192,-0.0172,-0.0165,-0.0161,-0.015,-0.0104,-0.0105,-0.0105,-0.0135,-0.0138,-0.014,0,0,0,0,0,-0.0313,-0.0322,-0.0317,-0.0315,-0.0296,-0.0282,-0.0279,-0.0263,-0.0256,-0.0258,-0.0237,-0.0216,-0.0169,-0.017,-0.0162,-0.0157,-0.0104,-0.0105,-0.0105,-0.0134,-0.0137,-0.014,0,0,0,0,0,0,-0.0336,-0.032,-0.0314,-0.0318,-0.0304,-0.0279,-0.0281,-0.0267,-0.0252,-0.0252,-0.0218,-0.0211,-0.0196,-0.0174,-0.0175,-0.0145,-0.0133,-0.0132,-0.0158,-0.0161,-0.0163,-0.0164,-0.0147,0,0,0,0,0,-0.0345,-0.0348,-0.0327,-0.0332,-0.0327,-0.0305,-0.0299,-0.0287,-0.0268,-0.0262,-0.0238,-0.0213,-0.0191,-0.0175,-0.0156,-0.0136,-0.0102,-0.0128,-0.0131,-0.0133,-0.013,-0.0074,-0.0071,-0.0107,-0.0107,-0.0107,0,0,-0.0356,-0.0347,-0.0349,-0.0337,-0.0326,-0.0324,-0.0301,-0.0296,-0.0292,-0.0256,-0.0247,-0.0224,-0.019,-0.0172,-0.0162,-0.0152,-0.0107,-0.0134,-0.0136,-0.0131,-0.0075,-0.0071,-0.0067,-0.0107,-0.0107,-0.0107,0,0,-0.0379,-0.0372,-0.0382,-0.0373,-0.036,-0.0344,-0.0345,-0.0322,-0.0311,-0.0298,-0.0272,-0.0244,-0.0216,-0.0184,-0.0165,-0.0167,-0.0127,-0.0166,-0.0171,-0.0118,-0.0114,-0.011,-0.0071,-0.0063,-0.0161,-0.0161,-0.0161,0,-0.0394,-0.0402,-0.0383,-0.0389,-0.0385,-0.0356,-0.0364,-0.0346,-0.0321,-0.0307,-0.0303,-0.0246,-0.0218,-0.0179,-0.0182,-0.017,-0.0141,-0.0162,-0.012,-0.0115,-0.0111,-0.0071,-0.0062,-0.0163,-0.0162,-0.0162,-0.0162,0,-0.0422,-0.0429,-0.0434,-0.0432,-0.0425,-0.0427,-0.04,-0.039,-0.0372,-0.0347,-0.0312,-0.027,-0.0233,-0.0219,-0.0201,-0.0157,-0.0147,-0.0134,-0.0111,-0.0109,-0.0067,-0.0058,-0.0165,-0.0164,-0.0164,-0.0163,0,0,-0.0453,-0.0455,-0.0458,-0.0465,-0.0449,-0.0446,-0.0436,-0.0412,-0.0402,-0.0366,-0.0342,-0.0293,-0.0263,-0.0239,-0.0204,-0.0153,-0.0099,-0.0134,-0.0131,-0.0093,0.001,-0.0014,-0.0005,-0.0079,-0.0077,-0.0076,0.0024,0,-0.0482,-0.0509,-0.0495,-0.0515,-0.0526,-0.0494,-0.0487,-0.0459,-0.0428,-0.0397,-0.0332,-0.0301,-0.0272,-0.0254,-0.0198,-0.0128,-0.0074,-0.0128,0.0001,0.0005,-0.0015,0.0005,-0.007,0.0031,0.0034,0.0035,0.0037,0,-0.0512,-0.0527,-0.0558,-0.0559,-0.0559,-0.0565,-0.0544,-0.0531,-0.0472,-0.0445,-0.0389,-0.034,-0.0265,-0.0242,-0.0107,-0.0145,-0.0071,-0.0011,-0.0005,-0.0008,-0.0001,0.0031,0.0055,0.0053,0.0052,0.0051,0.005,0,-0.0549,-0.0567,-0.0596,-0.0598,-0.0595,-0.0601,-0.0594,-0.0551,-0.0536,-0.0473,-0.0452,-0.0355,-0.0308,-0.0202,-0.0086,-0.0092,0.0064,0.0073,0.0126,0.0125,0.0131,0.0126,0.0179,0.0179,0.0179,0.0179,0.0178,0,-0.0581,-0.0604,-0.0622,-0.0639,-0.067,-0.0646,-0.0658,-0.0633,-0.0588,-0.0566,-0.0484,-0.044,-0.0294,-0.0191,-0.0086,0.0044,0.0068,0.0132,0.0154,0.0113,0.0105,0.0138,0.0132,0.0182,0.0182,0.0181,0.018,0,-0.0614,-0.0626,-0.0664,-0.0681,-0.0692,-0.0714,-0.0715,-0.0712,-0.0667,-0.0634,-0.0616,-0.0493,-0.0358,-0.0215,-0.0032,0.0038,0.0168,0.0211,0.015,0.0166,0.0194,0.0185,0.0282,0.0282,0.0282,0.0282,0.0282,0,-0.0631,-0.0657,-0.0707,-0.0739,-0.0755,-0.0782,-0.0798,-0.0763,-0.0749,-0.0663,-0.0644,-0.0511,-0.0418,-0.0176,-0.0034,0.0165,0.0191,0.025,0.0231,0.0195,0.0207,0.0198,0.0189,0.0282,0.0282,0.0282,0.0282,0,-0.0662,-0.0687,-0.0719,-0.0792,-0.083,-0.0858,-0.0871,-0.0863,-0.0804,-0.077,-0.0647,-0.0512,-0.0358,-0.0173,-0.0021,0.012,0.0204,0.0251,0.0252,0.0235,0.0197,0.0207,0.0198,0.0283,0.0282,0.0282,0.0282,0,-0.0683,-0.0719,-0.0773,-0.0828,-0.0886,-0.0912,-0.0912,-0.0873,-0.0843,-0.0733,-0.0693,-0.0515,-0.0401,-0.0195,-0.0056,0.0077,0.011,0.0143,0.015,0.0152,0.0076,0.0006,0.006,0,0,0,0,0,-0.0696,-0.0738,-0.0801,-0.0862,-0.0922,-0.0946,-0.0949,-0.093,-0.0874,-0.0791,-0.0733,-0.0582,-0.0349,-0.0243,-0.0112,-0.0075,0.0111,0.008,0.0147,0.0284,0.0284,0.0214,0,0,0,0,0,0,-0.0706,-0.077,-0.0801,-0.0877,-0.0922,-0.0972,-0.0972,-0.0933,-0.0868,-0.0794,-0.0662,-0.0573,-0.0345,-0.0426,-0.0117,-0.0076,-0.0021,0.0197,0.0199,0.0284,0.0284,0.0284,0.0212,0,0,0,0,0]}]]